Hourly Data Report for June 11, 2021

WRIGLEY A
NORTHWEST TERRITORIES
Current Station Operator: NAVCAN

63°12'35.000" N
123°26'12.000" W
149.70 m
2204005
YWY

Download Data

Hourly Data (June 2021)
Hourly Data Report for June 11, 2021
TIME
LST
Temp Definition
°C
Dew Point Definition
°C
Rel Hum Definition
%
Precip. Amount Definition
mm

Wind Dir Definition
10's deg

Wind Spd Definition
km/h
Visibility Definition
km
Stn Press Definition
kPa
Hmdx Definition


Wind Chill Definition


Weather Definition


00:00 11.1 7.5 78 LegendMM 2 7 LegendMM 99.39     LegendNANA
01:00 11.9 7.1 72 LegendMM 4 5 LegendMM 99.36     LegendNANA
02:00 10.6 8.3 86 LegendMM 33 3 LegendMM 99.34     LegendNANA
03:00 10.3 8.2 87 LegendMM 6 5 LegendMM 99.29     LegendNANA
04:00 10.1 8.3 88 LegendMM 28 4 LegendMM 99.28     LegendNANA
05:00 10.7 8.1 84 LegendMM 24 3 LegendMM 99.28     LegendNANA
06:00 10.1 8.6 91 LegendMM 28 8 LegendMM 99.27     LegendNANA
07:00 10.1 8.5 90 LegendMM 28 1 LegendMM 99.26     LegendNANA
08:00 10.3 8.8 91 LegendMM 29 5 LegendMM 99.24     LegendNANA
09:00 10.7 9.2 90 LegendMM 29 11 LegendMM 99.23     LegendNANA
10:00 12.4 9.1 80 LegendMM 29 10 LegendMM 99.19     LegendNANA
11:00 11.9 8.9 82 LegendMM 31 12 LegendMM 99.18     LegendNANA
12:00 14.5 7.2 61 LegendMM 35 4 LegendMM 99.13     LegendNANA
13:00 13.3 9.1 76 LegendMM 30 16 LegendMM 99.08     LegendNANA
14:00 14.8 8.9 68 LegendMM 32 10 LegendMM 99.04     LegendNANA
15:00 15.2 8.1 63 LegendMM 31 16 LegendMM 98.99     LegendNANA
16:00 14.5 8.5 67 LegendMM 31 12 LegendMM 98.92     LegendNANA
17:00 14.8 9.1 69 LegendMM 33 4 LegendMM 98.85     LegendNANA
18:00 14.8 9.5 71 LegendMM 30 13 LegendMM 98.78     LegendNANA
19:00 14.9 9.2 68 LegendMM 31 4 LegendMM 98.67     LegendNANA
20:00 14.1 7.2 63 LegendMM 35 5 LegendMM 98.61     LegendNANA
21:00 11.8 8.1 78 LegendMM 32 12 LegendMM 98.61     LegendNANA
22:00 10.0 8.7 92 LegendMM 32 9 LegendMM 98.60     LegendNANA
23:00 9.4 8.8 96 LegendMM 32 7 LegendMM 98.57     LegendNANA

Notes on Data Quality.

Legend

  • E = Estimated
  • M = Missing
  • NA = Not Available*
  • [empty] = Indicates an unobserved value
Date modified: